CZ-6A DEB, 54348

Orbit data source: Space-Track

CZ-6A DEB, 54348 is space debris in SSO originally from a launch on Fri, 11 Nov 2022 UTC launched from the Taiyaun Space Center, China (TSC). Debris objects in space refer to the collection of defunct objects orbiting the Earth. Examples of debris include non-operational satellites, rocket bodies, and fragments generated from explosions, collisions, or faulty payload assembly.

Loading next visibility...
Identifier
54348, 2022-151CT
Orbit
SSO
Country
Flag of CNCN / PRC
Related business
Manufacturer
SAST
Mission
Spacecraft
Bus & Motor
Unknown
Mass
Unknown
Launch date (UTC)
2022-11-11 (3 years ago)
Launch vehicle
Unknown
Launch site
Taiyaun Space Center, China (TSC)
Object type
Payload
Rocket body
Debris
Shape & HBR
Unknown shape, 0.1 m
Radar Cross Section
Small (<0.1 m²)

Expand to show TLE details & history
Last TLE update: 14 hours ago

TLE from 14 hours ago
0 CZ-6A DEB
1 54348U 22151CT  26130.04005955  .00000686  00000-0  23716-3 0  9997
2 54348  98.6284 158.6011 0101840 151.8013 208.8739 14.36049280182115
Epoch: 2026-05-10T00:57Z
TLE epoch observation values (Epoch: 2026-05-10T00:57:41.145Z)
Latitude
-0.00005°
Longitude
-83.66918°
Altitude
838.466 km
Speed
7.4 km/s
True Right ascension
10h 34m 24s
True Declination
0° 00' 00"
Sunlit
Object was in daylight at epoch
Visualization orbit readout
Latitude
Unknown
Longitude
Unknown
Altitude
Unknown
Speed
Unknown
Apparent Right ascension
Unknown
Apparent Declination
Unknown
Sunlit
N/A
Visualization observer readout
Local Sidereal Time
22:57:45
Azimuth
Unknown
Elevation
Unknown
Doppler factor
Unknown
Orbital elements
Apogee altitude
841.498 km
Perigee altitude
695.931 km
Semi-major axis
7,146.851 km
Eccentricity
0.01018
Inclination
98.6284°
RAAN
158.6011°
Arg. of periapsis
151.8013°
True anomaly
208.3166°
Mean anomaly
208.8739°
Eccentric anomaly
208.59463°
Mean motion
3.59229 °/min
Orbital period
100.21 mins
BSTAR
0.00023716
Loading maneuver chart data...
Computing Atmospheric mass density...

Documentation

Showing up to 5 results
|